Weather History for Lakeland Region, FL

Change the Weather History Date:

Saturday, August 30, 2014

  Actual Average Record
Temperature  
Mean Temperature 82 °F -  
Max Temperature 93 °F 88 °F 95 °F (1999)
Min Temperature 71 °F 72 °F 70 °F (1992)
Cooling Degree Days 17    
Growing Degree Days 32 (Base 50)    
Moisture  
Dew Point 71 °F    
Average Humidity 80    
Maximum Humidity 100    
Minimum Humidity 46    
Precipitation  
Precipitation 0.00 in - - ()
Sea Level Pressure  
Sea Level Pressure 30.11 in    
Wind  
Wind Speed 2 mph (East)    
Max Wind Speed 13 mph    
Max Gust Speed -    
Visibility 10 miles    
Events Rain    
Averages and records for this station are not official NWS values.
T = Trace of Precipitation, MM = Missing Value Source: NWS Daily Summary

Daily Weather History Graph

Daily Weather History Graph

Search for Another Location

Airport:

Trip Planner

Search our weather history database for the weather conditions in past years. The results will help you decide how hot, cold, wet, or windy it might be!

Date:

Astronomy

Aug. 30, 2014 Rise Set
Actual Time 7:05 AM EDT 7:51 PM EDT
Civil Twilight 6:41 AM EDT 8:15 PM EDT
Nautical Twilight 6:13 AM EDT 8:43 PM EDT
Astronomical Twilight 5:44 AM EDT 9:11 PM EDT
Moon 11:24 AM EDT (8/30) 10:53 PM EDT (8/30)
Length of Visible Light 13h 33m
Length of Day
12h 45m
Waxing Crescent, 23% of the Moon is Illuminated
Aug 30
Waxing Crescent
Sep 2
First Quarter
Sep 8
Full
Sep 15
Last Quarter
Sep 24
New

Hourly Weather History & Observations

Time (EDT) Temp. Heat Index Dew Point Humidity Pressure Visibility Wind Dir Wind Speed Gust Speed Precip Events Conditions
12:15 AM 73.4 °F - 73.4 °F 100% 30.08 in 10.0 mi Calm Calm - N/A Rain Light Rain
12:35 AM 73.4 °F - 73.4 °F 100% 30.10 in 10.0 mi NNW 4.6 mph - N/A   Clear
12:55 AM 71.6 °F - 71.6 °F 100% 30.11 in 10.0 mi Calm Calm - N/A   Clear
1:15 AM - - - N/A% 30.11 in 10.0 mi Calm Calm - N/A   Clear
1:35 AM 73.4 °F - 73.4 °F 100% 30.11 in 10.0 mi SE 4.6 mph - N/A   Clear
1:55 AM - - - N/A% 30.11 in 10.0 mi NE 3.5 mph - N/A   Clear
2:15 AM - - - N/A% 30.11 in 10.0 mi Calm Calm - N/A   Clear
2:35 AM - - - N/A% 30.11 in 10.0 mi Calm Calm - N/A   Clear
2:55 AM - - - N/A% 30.11 in 10.0 mi Calm Calm - N/A   Clear
3:15 AM - - - N/A% 30.11 in 10.0 mi Calm Calm - N/A   Clear
3:35 AM - - - N/A% 30.11 in 10.0 mi Calm Calm - N/A   Clear
3:55 AM - - - N/A% 30.11 in 10.0 mi Calm Calm - N/A   Clear
4:15 AM - - - N/A% 30.11 in 10.0 mi Calm Calm - N/A   Clear
4:35 AM - - - N/A% 30.11 in 10.0 mi Calm Calm - N/A   Clear
4:55 AM - - - N/A% 30.11 in 10.0 mi Calm Calm - N/A   Clear
5:15 AM - - - N/A% 30.11 in 10.0 mi Calm Calm - N/A   Clear
5:35 AM - - - N/A% 30.11 in 10.0 mi Calm Calm - N/A   Clear
5:56 AM 75.2 °F - 71.6 °F 89% 30.12 in 10.0 mi South 12.7 mph - N/A   Scattered Clouds
6:56 AM 75.2 °F - 71.6 °F 89% 30.13 in 12.0 mi Calm Calm - N/A   Scattered Clouds
7:50 AM 75.2 °F - 71.6 °F 89% 30.13 in 12.0 mi Calm Calm - N/A   Clear
8:50 AM 78.8 °F - 71.6 °F 78% 30.15 in 12.0 mi East 4.6 mph - N/A   Clear
9:50 AM 82.4 °F 89.5 °F 75.2 °F 79% 30.15 in 12.0 mi ESE 8.1 mph - N/A   Clear
12:54 PM 89.6 °F 96.2 °F 71.6 °F 55% 30.12 in 12.0 mi Variable 4.6 mph - N/A   Scattered Clouds
1:54 PM 89.6 °F 96.2 °F 71.6 °F 55% 30.11 in 12.0 mi Calm Calm - N/A   Scattered Clouds
2:50 PM 93.2 °F 98.8 °F 69.8 °F 46% 30.08 in 12.0 mi SE 8.1 mph - N/A   Scattered Clouds
3:50 PM 93.2 °F 98.8 °F 69.8 °F 46% 30.06 in 12.0 mi ENE 3.5 mph - N/A   Scattered Clouds
4:50 PM 91.4 °F 95.4 °F 68.0 °F 46% 30.04 in 12.0 mi NE 11.5 mph - N/A   Scattered Clouds
6:50 PM 78.8 °F - 69.8 °F 74% 30.09 in 12.0 mi SSE 6.9 mph - N/A   Scattered Clouds
7:50 PM 78.8 °F - 69.8 °F 74% 30.09 in 10.0 mi Calm Calm - N/A   Scattered Clouds
8:50 PM 75.2 °F - 71.6 °F 89% 30.10 in 10.0 mi Calm Calm - N/A   Scattered Clouds
9:50 PM 75.2 °F - 71.6 °F 89% 30.13 in 10.0 mi Calm Calm - N/A   Clear
10:15 PM 77.0 °F - 69.8 °F 78% 30.13 in 10.0 mi Calm Calm - N/A   Clear
10:35 PM 75.2 °F - 71.6 °F 89% 30.13 in 10.0 mi Calm Calm - N/A   Clear
10:55 PM 75.2 °F - 71.6 °F 89% 30.13 in 10.0 mi Calm Calm - N/A   Scattered Clouds
11:15 PM 75.2 °F - 71.6 °F 89% 30.15 in 10.0 mi Calm Calm - N/A   Scattered Clouds
11:35 PM 75.2 °F - 69.8 °F 83% 30.15 in 10.0 mi NNE 3.5 mph - N/A   Clear
11:55 PM 73.4 °F - 71.6 °F 94% 30.15 in 10.0 mi North 3.5 mph - N/A   Clear